Location: Columbia
(38.9520°N, 92.3340°W)
Time: 15:38:37
(UTC-06:00)

Cosmos 1603 - Visible Passes

Search period start: 19 December 2014 00:00
Search period end: 29 December 2014 00:00
Orbit: 832 x 859 km, 71.0° (Epoch: 18 December)

Date Brightness Start Highest point End Pass type
(mag) Time Alt. Az. Time Alt. Az. Time Alt. Az.
19 Dec 3.6 18:04:11 10° NNW 18:09:47 70° ENE 18:15:20 10° SSE visible
19 Dec 6.5 19:50:21 10° WNW 19:53:12 14° W 19:56:03 10° SW visible
20 Dec 3.6 17:50:21 10° NNW 17:55:57 68° ENE 18:01:29 10° SSE visible
20 Dec 6.5 19:36:24 10° WNW 19:39:23 15° W 19:42:23 10° SW visible
21 Dec 3.6 17:36:32 10° NNW 17:42:07 65° ENE 17:47:39 10° SSE visible
21 Dec 6.6 19:22:27 10° WNW 19:25:35 15° W 19:28:42 10° SW visible
22 Dec 6.5 06:44:45 10° SSE 06:48:59 22° E 06:53:12 10° NE visible
22 Dec 3.7 17:22:42 10° NNW 17:28:17 63° ENE 17:33:48 10° SSE visible
22 Dec 6.6 19:08:31 10° WNW 19:11:46 16° W 19:15:01 10° SW visible
23 Dec 6.6 06:31:01 10° SSE 06:35:10 21° E 06:39:18 10° NE visible
23 Dec 6.6 18:54:35 10° WNW 18:57:57 17° W 19:01:20 10° SW visible
24 Dec 6.6 06:17:18 10° SE 06:21:21 20° E 06:25:24 10° NE visible
24 Dec 6.6 18:40:39 10° WNW 18:44:09 17° W 18:47:38 10° SW visible
25 Dec 6.6 06:03:34 10° SE 06:07:32 20° E 06:11:30 10° NE visible
25 Dec 6.6 18:26:44 10° WNW 18:30:20 18° W 18:33:55 10° SW visible
26 Dec 6.6 05:49:51 10° SE 05:53:44 19° E 05:57:35 10° ENE visible
26 Dec 6.6 18:12:49 10° WNW 18:16:31 18° W 18:20:13 10° SW visible
27 Dec 6.6 05:36:08 10° SE 05:39:55 18° E 05:43:40 10° ENE visible
27 Dec 6.6 17:58:54 10° WNW 18:02:42 19° W 18:06:29 10° SW visible
28 Dec 6.5 05:22:26 10° SE 05:26:06 18° E 05:29:45 10° ENE visible
28 Dec 6.6 17:44:59 10° NW 17:48:53 20° W 17:52:46 10° SW visible
